Saison 2023 · Manche 19

Mexico City Grand Prix

2023-10-29 · Autódromo Hermanos Rodríguez · Mexico · Mexico City Grand Prix · 71Lap · 305.354km
Red Bull 2:02:30.814
Mercedes +13.875
Victoire par équipe 27pt P2 · P6
Ferrari +23.124
Victoire par équipe 27pt P3 · P4
Meilleur tour
1:21.334 · L71
Abandon
2
Kevin Magnussen L31 Sergio Pérez L1
Météo
26°/46°
moy. air/piste · sec · humidité 24%
Voiture de sécurité
2
déployée au tour L5, L33
Utilisation des pneus Direction de course
Storylines · This Grand Prix & circuit
Conversion pole-victoire 12/25 48%
Most DNFs · all-time P13
Most SC/VSC · all-time P14
Circuit Info
Autódromo Hermanos Rodríguez Mexico City, Mexico
71Lap 305.354km 26 courses held (1963–) Record du tour 1:17.774 · Valtteri Bottas (2021)
Records Watch · Active drivers ranked at this Grand Prix
P1 Max Verstappen 3 victoires · GP #1
P2 Lando Norris 1 victoires · → Max Verstappen -2
P2 Carlos Sainz 1 victoires · → Max Verstappen -2
P1 Valtteri Bottas 1 · GP #1
P1 Charles Leclerc 1 · GP #1
P1 Lando Norris 1 · GP #1
P1 Fernando Alonso 5 départs · GP #1
P1 Pierre Gasly 5 départs · GP #1
P1 Lewis Hamilton 5 départs · GP #1
Course Trace · position by lap
VSC · tour 5 SC · tours 33–71 drapeau rouge · course suspendue · tour 34 départ arrêté · tour 35 départ arrêté · tour 35 départ arrêté SG 1 7 13 19 25 31 37 43 49 55 61 67 FIN Verstappen · arrêt aux stands L19 Verstappen VER Verstappen VER Hamilton · arrêt aux stands L24 Hamilton HAM Hamilton HAM Leclerc · arrêt aux stands L31 Leclerc LEC Leclerc LEC Sainz · arrêt aux stands L30 Sainz SAI Sainz SAI Norris · arrêt aux stands L11 Norris NOR Norris NOR Russell · arrêt aux stands L26 Russell RUS Russell RUS Ricciardo · arrêt aux stands L27 Ricciardo RIC Ricciardo RIC Piastri · arrêt aux stands L25 Piastri PIA Piastri PIA Albon ALB Albon ALB Ocon OCO Ocon OCO Gasly · arrêt aux stands L28 Gasly GAS Gasly GAS Tsunoda · arrêt aux stands L9 Tsunoda TSU Tsunoda TSU Hülkenberg · arrêt aux stands L23 Hülkenberg HUL Hülkenberg HUL Zhou · arrêt aux stands L21 Zhou ZHO Zhou ZHO Bottas · arrêt aux stands L31 Bottas · +5s ajouté après la course Bottas BOT Bottas BOT Sargeant · arrêt aux stands L22 Sargeant · arrêté L70 · classé P16 Sargeant SAR Sargeant SAR Stroll · arrêt aux stands L30 Stroll · arrêté L66 · classé P17 Stroll STR Stroll STR Alonso · arrêt aux stands L29 Alonso · arrêté L47 · classé P18 Alonso ALO Alonso ALO Magnussen · arrêt aux stands L23 Magnussen · abandon L31 Magnussen MAG Magnussen MAG Pérez · abandon L1 Pérez PER Pérez PER
SC·VSC arrêt aux stands pénalité purgée aux stands drapeau rouge départ arrêté SG Grille de départ FIN classement officiel pénalité ajoutée après la course voiture arrêtée position à chaque tour (depuis 1996)
PosPiloteTeamGrilleTourTemps / StatutPoints
1 1 Max Verstappen Red Bull 3 71 2:02:30.814 25
2 44 Lewis Hamilton FL Mercedes 6 71 +13.875 19
3 16 Charles Leclerc Ferrari 1 71 +23.124 15
4 55 Carlos Sainz Ferrari 2 71 +27.154 12
5 4 Lando Norris McLaren 17 71 +33.266 10
6 63 George Russell Mercedes 8 71 +41.020 8
7 3 Daniel Ricciardo AlphaTauri 4 71 +41.570 6
8 81 Oscar Piastri McLaren 7 71 +43.104 4
9 23 Alexander Albon Williams 14 71 +48.573 2
10 31 Esteban Ocon Alpine F1 Team 15 71 +1:02.879 1
11 10 Pierre Gasly Alpine F1 Team 11 71 +1:06.208
12 22 Yuki Tsunoda AlphaTauri 18 71 +1:18.982
13 27 Nico Hülkenberg Haas F1 Team 12 71 +1:20.309
14 24 Guanyu Zhou Alfa Romeo 10 71 +1:21.676
15 77 Valtteri Bottas Alfa Romeo 9 71 +1:25.597
16 2 Logan Sargeant Williams 19 70 Retired
17 18 Lance Stroll Aston Martin 0 66 Collision damage
W 14 Fernando Alonso Aston Martin 13 47 Withdrew
R 20 Kevin Magnussen Haas F1 Team 16 31 Accident
R 11 Sergio Pérez Red Bull 5 1 Collision damage
PosPiloteTeamQ1Q2Q3Écart à la pole
1 16 Charles Leclerc Ferrari 1:18.401 1:17.901 1:17.166 POLE Q3
2 55 Carlos Sainz Ferrari 1:18.755 1:18.382 1:17.233 +0.067 Q3
3 1 Max Verstappen Red Bull 1:18.099 1:17.625 1:17.263 +0.097 Q3
4 3 Daniel Ricciardo AlphaTauri 1:18.341 1:17.706 1:17.382 +0.216 Q3
5 11 Sergio Pérez Red Bull 1:18.553 1:18.124 1:17.423 +0.257 Q3
6 44 Lewis Hamilton Mercedes 1:18.677 1:17.571 1:17.454 +0.288 Q3
7 81 Oscar Piastri McLaren 1:18.241 1:17.874 1:17.623 +0.457 Q3
8 63 George Russell Mercedes 1:18.893 1:17.673 1:17.674 +0.507 Q2
9 77 Valtteri Bottas Alfa Romeo 1:18.429 1:18.016 1:18.032 +0.850 Q2
10 24 Guanyu Zhou Alfa Romeo 1:19.016 1:18.440 1:18.050 +0.884 Q3
11 10 Pierre Gasly Alpine F1 Team 1:18.945 1:18.521 +1.355 Q2
12 27 Nico Hülkenberg Haas F1 Team 1:18.969 1:18.524 +1.358 Q2
13 14 Fernando Alonso Aston Martin 1:18.848 1:18.738 +1.572 Q2
14 23 Alexander Albon Williams 1:18.828 1:19.147 +1.662 Q1
15 22 Yuki Tsunoda AlphaTauri 1:18.890 +1.724 Q1
16 31 Esteban Ocon Alpine F1 Team 1:19.080 +1.914 Q1
17 20 Kevin Magnussen Haas F1 Team 1:19.163 +1.997 Q1
18 18 Lance Stroll Aston Martin 1:19.227 +2.061 Q1
19 4 Lando Norris McLaren 1:21.554 +4.388 Q1
20 2 Logan Sargeant Williams
Grille de départ
Officielle
10
11
15
31 Esteban Ocon ▲1
16
20 Kevin Magnussen ▲1
17
4 Lando Norris ▲2
18
22 Yuki Tsunoda ▼3
PU Elements and RNC Changes · Turn 1 incident with Car 81 · Turn 2 incident with Car 81
19
PIT
18 Lance Stroll départ depuis les stands
Changes made during Parc Ferme
Final grid as classé, including any depuis la voie des stands départs. Source: Jolpica-F1. The arrow compares the grid slot with the les qualifications classification; hover a drop to see the stewards document behind it.
Aucune donnée pour cette séance.
PosPiloteMeilleur tourÉcartTours
1 1 Max Verstappen 1:19.718 29
2 23 Alexander Albon 1:19.813 +0.095 31
3 11 Sergio Pérez 1:20.015 +0.297 28
4 4 Lando Norris 1:20.237 +0.519 30
5 16 Charles Leclerc 1:20.297 +0.579 30
6 81 Oscar Piastri 1:20.463 +0.745 32
7 55 Carlos Sainz 1:20.479 +0.761 23
8 3 Daniel Ricciardo 1:20.568 +0.850 30
9 31 Esteban Ocon 1:20.677 +0.959 26
10 18 Lance Stroll 1:20.687 +0.969 26
11 44 Lewis Hamilton 1:20.724 +1.006 25
12 27 Nico Hülkenberg 1:20.968 +1.250 29
13 24 Guanyu Zhou 1:21.129 +1.411 27
14 2 Logan Sargeant 1:21.157 +1.439 30
15 87 Oliver Bearman 1:21.313 +1.595 31
16 14 Fernando Alonso 1:21.347 +1.629 17
17 6 Isack Hadjar 1:21.941 +2.223 25
18 7 Jack Doohan 1:22.109 +2.391 25
Classified by best lap · source OpenF1 (2023+)
PosPiloteMeilleur tourÉcartTours
1 1 Max Verstappen 1:18.686 26
2 4 Lando Norris 1:18.805 +0.119 31
3 16 Charles Leclerc 1:18.952 +0.266 33
4 77 Valtteri Bottas 1:18.955 +0.269 33
5 11 Sergio Pérez 1:18.988 +0.302 29
6 3 Daniel Ricciardo 1:19.002 +0.316 31
7 44 Lewis Hamilton 1:19.024 +0.338 30
8 31 Esteban Ocon 1:19.077 +0.391 29
9 81 Oscar Piastri 1:19.163 +0.477 31
10 63 George Russell 1:19.227 +0.541 31
11 55 Carlos Sainz 1:19.257 +0.571 34
12 22 Yuki Tsunoda 1:19.290 +0.604 34
13 24 Guanyu Zhou 1:19.415 +0.729 27
14 23 Alexander Albon 1:19.446 +0.760 23
15 27 Nico Hülkenberg 1:19.535 +0.849 29
16 10 Pierre Gasly 1:19.642 +0.956 29
17 2 Logan Sargeant 1:19.900 +1.214 26
18 18 Lance Stroll 1:20.075 +1.389 17
19 20 Kevin Magnussen 1:20.112 +1.426 30
20 14 Fernando Alonso 1:20.426 +1.740 30
Classified by best lap · source OpenF1 (2023+)
PosPiloteMeilleur tourÉcartTours
1 1 Max Verstappen 1:17.887 19
2 23 Alexander Albon 1:17.957 +0.070 19
3 11 Sergio Pérez 1:18.026 +0.139 19
4 63 George Russell 1:18.248 +0.361 20
5 81 Oscar Piastri 1:18.392 +0.505 22
6 77 Valtteri Bottas 1:18.437 +0.550 26
7 22 Yuki Tsunoda 1:18.450 +0.563 26
8 4 Lando Norris 1:18.480 +0.593 21
9 3 Daniel Ricciardo 1:18.499 +0.612 15
10 44 Lewis Hamilton 1:18.522 +0.635 21
11 2 Logan Sargeant 1:18.718 +0.831 15
12 24 Guanyu Zhou 1:18.917 +1.030 21
13 16 Charles Leclerc 1:18.970 +1.083 22
14 18 Lance Stroll 1:19.094 +1.207 21
15 55 Carlos Sainz 1:19.293 +1.406 23
16 27 Nico Hülkenberg 1:19.320 +1.433 18
17 14 Fernando Alonso 1:19.471 +1.584 21
18 10 Pierre Gasly 1:19.509 +1.622 19
19 20 Kevin Magnussen 1:19.573 +1.686 9
20 31 Esteban Ocon 1:19.839 +1.952 19
Classified by best lap · source OpenF1 (2023+)
#PiloteTemps au tourTour
1 44 Lewis Hamilton 1:21.334 L71
2 1 Max Verstappen 1:21.644 L40
3 1 Max Verstappen 1:21.787 L41
4 44 Lewis Hamilton 1:21.852 L40
5 4 Lando Norris 1:21.944 L71
6 1 Max Verstappen 1:21.986 L42
7 44 Lewis Hamilton 1:21.991 L65
8 1 Max Verstappen 1:21.991 L60
9 4 Lando Norris 1:22.027 L56
10 1 Max Verstappen 1:22.041 L43
Top 10 la plus rapide race tours — #1 is the la plus rapide lap of la course(FL).
Arrêts aux stands · comparaison
22s 24s 26s 28s 30s médiane 22.7s Carlos Sainz · L30 · 22.067s Lewis Hamilton · L24 · 22.210s Charles Leclerc · L31 · 22.248s George Russell · L26 · 22.311s Max Verstappen · L33 · 22.372s Daniel Ricciardo · L27 · 22.406s Max Verstappen · L19 · 22.427s Lando Norris · L33 · 22.563s Lance Stroll · L30 · 22.582s Pierre Gasly · L28 · 22.627s Guanyu Zhou · L21 · 22.817s Fernando Alonso · L29 · 22.844s Nico Hülkenberg · L23 · 23.144s Lando Norris · L11 · 23.408s Valtteri Bottas · L31 · 23.638s Kevin Magnussen · L23 · 23.642s Alexander Albon · L33 · 23.680s Oscar Piastri · L25 · 23.734s Logan Sargeant · L22 · 23.945s Yuki Tsunoda · L9 · 30.121s
la plus rapide 22.067s Carlos Sainz la plus lente 30.121s Yuki Tsunoda temps de passage dans la voie des stands — un point par arrêt
PiloteArrêtTourTempsPassage dans la voie des stands
22 Yuki Tsunoda 1 9 14:16:34 30.121s
4 Lando Norris 1 11 14:19:23 23.408s
1 Max Verstappen 1 19 14:30:10 22.427s
24 Guanyu Zhou 1 21 14:33:34 22.817s
2 Logan Sargeant 1 22 14:35:03 23.945s
20 Kevin Magnussen 1 23 14:36:27 23.642s
27 Nico Hülkenberg 1 23 14:36:19 23.144s
44 Lewis Hamilton 1 24 14:37:21 22.210s
81 Oscar Piastri 1 25 14:38:53 23.734s
63 George Russell 1 26 14:40:18 22.311s
3 Daniel Ricciardo 1 27 14:41:39 22.406s
10 Pierre Gasly 1 28 14:43:24 22.627s
14 Fernando Alonso 1 29 14:45:06 22.844s
55 Carlos Sainz 1 30 14:45:46 22.067s
18 Lance Stroll 1 30 14:46:28 22.582s
16 Charles Leclerc 1 31 14:47:01 22.248s
77 Valtteri Bottas 1 31 14:47:48 23.638s
23 Alexander Albon 1 33 14:50:54 23.680s
4 Lando Norris 2 33 14:50:50 22.563s
1 Max Verstappen 2 33 14:50:02 22.372s
31 Esteban Ocon 1 34 14:53:30
3 Daniel Ricciardo 2 34 14:53:02
22 Yuki Tsunoda 2 34 14:53:13
18 Lance Stroll 2 34 14:53:38
2 Logan Sargeant 2 34 14:53:33
55 Carlos Sainz 2 34 14:53:00
14 Fernando Alonso 2 34 14:53:42
77 Valtteri Bottas 2 34 14:53:35
10 Pierre Gasly 2 34 14:53:20
44 Lewis Hamilton 2 34 14:52:59
27 Nico Hülkenberg 2 34 14:53:15
16 Charles Leclerc 2 34 14:52:57
81 Oscar Piastri 2 34 14:53:04
63 George Russell 2 34 14:53:10
24 Guanyu Zhou 2 34 14:53:24
arrêts
SG 10 20 30 40 50 60 L71
1
2
M18
H15
H38·+1
44
2
M23
H11
M37·+4
16
2
M30
H41·+3
55
2
M29
H42·+4
4
2
S10
H23
M38·+1
63
2
M25
H9
M37·+5
3
2
M26
H45·+7
81
2
M24
H10
M37·+3
23
1
H33
M38·+1
31
1
H34
M37
10
2
M27
H44·+6
22
2
M8
H26
H37
27
2
M22
H12
M37
24
2
M20
H51·+13
77
2
M30
H41·+3
2
2
M21
H13
M36
18
2
M29·+1
H37·+5
14
2
M28·+1
H19·+6
20
1
M22
H9
11
0
M1
S Soft M Medium H Hard I Intermediate W Wet SC·VSC drapeau rouge départ arrêté arrêt aux stands pénalité purgée aux stands
Course · largeur de barre = tours sur ce train, ·+N = monté usagé avec N tours au compteur · source OpenF1 (2023+)
Composés désignés pour ce Grand Prix
C3 Dur C4 Medium C5 Tendre
Pirelli désigne trois de ses composés slicks pour chaque épreuve ; plus le numéro C est élevé, plus le pneu est tendre. Document FIA ↗
Plus de places gagnées en piste
4
+21
P17→P5
22
+16
P18→P12
2
+14
P19→P16
18
+13
P—→P17
31
+11
P15→P10
10
+11
P11→P11
24
+9
P10→P14
63
+8
P8→P6
Plus de places perdues
Guanyu Zhou −14 Pierre Gasly −13 Yuki Tsunoda −13
Course · Somme des places gagnées en piste tour par tour — tour de départ et tours aux stands du pilote exclus. Données de tours de course depuis 1996.
PiloteTypeTourPurgéeInfligéeMotif
16 Charles Leclerc No further action Car 16 was driven on track with visible damage, prior to detachment of bodywork in turn 1. (No further action.) Document FIA ↗
Car 16 was driven on track with visible damage, prior to detachment of bodywork in turn 1. (No further action.) Document FIA ↗
81 Oscar Piastri No further action Car 81 collided with Car 22 in Turn 1. (No further action.) Document FIA ↗
Car 81 collided with Car 22 in Turn 1. (No further action.) Document FIA ↗
22 Yuki Tsunoda No further action Car 22 collided with Car 81 in Turn 1 (No further action.) Document FIA ↗
Car 22 collided with Car 81 in Turn 1 (No further action.) Document FIA ↗
81 Oscar Piastri No further action Car 81 collided with Car 22 in Turn 2. (No further action.) Document FIA ↗
Car 81 collided with Car 22 in Turn 2. (No further action.) Document FIA ↗
22 Yuki Tsunoda No further action Car 22 collided with Car 81 in Turn 2. (No further action.) Document FIA ↗
Car 22 collided with Car 81 in Turn 2. (No further action.) Document FIA ↗
22 Yuki Tsunoda Pénalité sur la grille ▼3 Turn 1 incident with Car 81 · Turn 2 incident with Car 81 · PU Elements and RNC Changes (P15 → P18)
▼3 Turn 1 incident with Car 81 · Turn 2 incident with Car 81 · PU Elements and RNC Changes (P15 → P18)
77 Valtteri Bottas Time penalty Après la course +5s · 2pt Car 77 collided with Car 18 between turns 13 and 14. (5 second time penalty imposed after la course. 2 penalty points (total of 2 for the 12 month period).) Document FIA ↗
Purgée Après la course · +5s · 2pt Car 77 collided with Car 18 between turns 13 and 14. (5 second time penalty imposed after la course. 2 penalty points (total of 2 for the 12 month period).) Document FIA ↗
Tour = tour où la pénalité a été infligée · Purgée = tour où elle a été purgée aux stands (vide : ajoutée au temps de course)
Time, drive-through and stop-go penalties come from race control messages (OpenF1, 2023+). Grille penalties never appear there — the stewards publish them as documents after the session — so they are worked back from the starting grid against the les qualifications classification, which gives places actually lost rather than the figure written in the decision.
PiloteTypeTourPurgéeInfligéeMotif
18 Lance Stroll Pit lane start The setup of the car has been changed while under Parc Fermé. (Required to start la course from the depuis la voie des stands.) Document FIA ↗
The setup of the car has been changed while under Parc Fermé. (Required to start la course from the depuis la voie des stands.) Document FIA ↗
44 Lewis Hamilton No further action Car 44 appeared to fail to comply with a yellow flag in turn 3. (No further action.) Document FIA ↗
Car 44 appeared to fail to comply with a yellow flag in turn 3. (No further action.) Document FIA ↗
24 Guanyu Zhou Fine €500 Pit lane speeding – 84.1 km/h (The competitor (Alfa Romeo F1 Team Stake) is fined €500.) Document FIA ↗
€500 Pit lane speeding – 84.1 km/h (The competitor (Alfa Romeo F1 Team Stake) is fined €500.) Document FIA ↗
14 Fernando Alonso No further action Car 14 arrêté at the Pit Exit preventing other cars from exiting. (No further action.) Document FIA ↗
Car 14 arrêté at the Pit Exit preventing other cars from exiting. (No further action.) Document FIA ↗
1 Max Verstappen No further action Car 1 drove very slowly at the Pit Exit and in doing so, unnecessarily impeded the cars behind. (No further action.) Document FIA ↗
Car 1 drove very slowly at the Pit Exit and in doing so, unnecessarily impeded the cars behind. (No further action.) Document FIA ↗
63 George Russell No further action Car 63 arrêté at the Pit Exit preventing other cars from exiting. (No further action.) Document FIA ↗
Car 63 arrêté at the Pit Exit preventing other cars from exiting. (No further action.) Document FIA ↗
2 Logan Sargeant Pénalité sur la grille ▼10 · 2pt Failing to comply with a yellow flag in turn 3. (Drop of 10 grid positions for the next Sprint/Course in which the driver participates. 2 penalty point) Document FIA ↗
▼10 · 2pt Failing to comply with a yellow flag in turn 3. (Drop of 10 grid positions for the next Sprint/Course in which the driver participates. 2 penalty point) Document FIA ↗
44 Lewis Hamilton Tours supprimés TRACK LIMITS
TRACK LIMITS
Tour = tour où la pénalité a été infligée · Purgée = tour où elle a été purgée aux stands (vide : ajoutée au temps de course)
Time, drive-through and stop-go penalties come from race control messages (OpenF1, 2023+). Grille penalties never appear there — the stewards publish them as documents after the session — so they are worked back from the starting grid against the les qualifications classification, which gives places actually lost rather than the figure written in the decision.
PiloteTypeTourPurgéeInfligéeMotif
22 Yuki Tsunoda Back of the grid The following Power Unit elements have been utilisés: 5th Internal Combustion Moteur (ICE) 5th Turbo Charger (TC) 5th Motor Generator Unit - Heat (MGU-H) 5th Motor Generator Unit - Kinetic (MGU-K) 3rd Energy Store (ES) 3rd Control Electronics (CE) The followi (Required to start the Course from the back of the starting grid.) Document FIA ↗
The following Power Unit elements have been utilisés: 5th Internal Combustion Moteur (ICE) 5th Turbo Charger (TC) 5th Motor Generator Unit - Heat (MGU-H) 5th Motor Generator Unit - Kinetic (MGU-K) 3rd Energy Store (ES) 3rd Control Electronics (CE) The followi (Required to start the Course from the back of the starting grid.) Document FIA ↗
Tour = tour où la pénalité a été infligée · Purgée = tour où elle a été purgée aux stands (vide : ajoutée au temps de course)
Time, drive-through and stop-go penalties come from race control messages (OpenF1, 2023+). Grille penalties never appear there — the stewards publish them as documents after the session — so they are worked back from the starting grid against the les qualifications classification, which gives places actually lost rather than the figure written in the decision.
PiloteTypeTourPurgéeInfligéeMotif
14 Fernando Alonso Fine €100 Pit lane speeding – 80.1 km/h (The competitor (Aston Martin Aramco Cognizant F1 Team) is fined €100.) Document FIA ↗
€100 Pit lane speeding – 80.1 km/h (The competitor (Aston Martin Aramco Cognizant F1 Team) is fined €100.) Document FIA ↗
Tour = tour où la pénalité a été infligée · Purgée = tour où elle a été purgée aux stands (vide : ajoutée au temps de course)
Time, drive-through and stop-go penalties come from race control messages (OpenF1, 2023+). Grille penalties never appear there — the stewards publish them as documents after the session — so they are worked back from the starting grid against the les qualifications classification, which gives places actually lost rather than the figure written in the decision.
DocTitreObjetPublished(CET)
Event Notes - Pirelli Preview ↗ 2023-10-25 19:45
2023-10-25 19:45 CET
Event Notes - Circuit Map, Pit Lane and Red Zone ↗ 2023-10-26 19:45
2023-10-26 19:45 CET
Course Director's Event Notes ↗ 2023-10-26 19:50
2023-10-26 19:50 CET
Car Display Procedure ↗ 2023-10-26 20:21
2023-10-26 20:21 CET
Review Meeting Attendees ↗ 2023-10-26 22:15
2023-10-26 22:15 CET
PU elements utilisés per driver up to now ↗ 2023-10-27 16:33
2023-10-27 16:33 CET
RNCs utilisés per driver up to now ↗ 2023-10-27 16:34
2023-10-27 16:34 CET
Curfew ↗ 2023-10-27 16:50
2023-10-27 16:50 CET
Self scrutineering ↗ 2023-10-27 18:24
2023-10-27 18:24 CET
Entry List ↗ 2023-10-27 18:30
2023-10-27 18:30 CET
New PU elements for this Competition ↗ 2023-10-27 20:34
2023-10-27 20:34 CET
New RNCs for this Competition ↗ 2023-10-27 20:46
2023-10-27 20:46 CET
Infringement - Car 22 - PU Elements and RNC Changes ↗ 22 Yuki Tsunoda 2023-10-27 21:36
22 Yuki Tsunoda 2023-10-27 21:36 CET
P1 Classification ↗ 2023-10-27 21:45
2023-10-27 21:45 CET
P2 Classification ↗ 2023-10-28 01:12
2023-10-28 01:12 CET
Course Director's Note - SC2-SC1 Time ↗ 2023-10-28 01:40
2023-10-28 01:40 CET
RNCs utilisés outside allocation ↗ 2023-10-28 01:45
2023-10-28 01:45 CET
P1 and P2 Scrutineering ↗ 2023-10-28 02:05
2023-10-28 02:05 CET
Post-Qualifications Procedure ↗ 2023-10-28 16:16
2023-10-28 16:16 CET
Additional Intermediate Pneus ↗ 2023-10-28 17:40
2023-10-28 17:40 CET
New PU elements for this Competition ↗ 2023-10-28 19:40
2023-10-28 19:40 CET
P3 Classification ↗ 2023-10-28 20:45
2023-10-28 20:45 CET
New PU elements for this Competition ↗ 2023-10-28 22:21
2023-10-28 22:21 CET
Summons - Car 14 - Alleged Impeding at Pit Exit ↗ 14 Fernando Alonso 2023-10-29 00:30
14 Fernando Alonso 2023-10-29 00:30 CET
Summons - Car 2 - Alleged Overtaking under Yellow Drapeaux ↗ 2 Logan Sargeant 2023-10-29 00:35
2 Logan Sargeant 2023-10-29 00:35 CET
Summons - Car 1 - Alleged Impeding at Pit Exit ↗ 1 Max Verstappen 2023-10-29 00:35
1 Max Verstappen 2023-10-29 00:35 CET
Summons - Car 63 - Alleged Impeding at Pit Exit ↗ 63 George Russell 2023-10-29 00:35
63 George Russell 2023-10-29 00:35 CET
Provisional Qualifications Classification ↗ 2023-10-29 00:36
2023-10-29 00:36 CET
Summons - Car 22 - Williams Equipment in Pit Lane ↗ 22 Yuki Tsunoda 2023-10-29 00:36
22 Yuki Tsunoda 2023-10-29 00:36 CET
Summons - Williams - Equipment in Pit Lane ↗ 2023-10-29 00:36
2023-10-29 00:36 CET
Summons - Car 44 - Alleged failure to slow under yellow flags ↗ 44 Lewis Hamilton 2023-10-29 00:36
44 Lewis Hamilton 2023-10-29 00:36 CET
P3 and Qualifications scrutineering ↗ 2023-10-29 01:36
2023-10-29 01:36 CET
Infringement - Car 2 - Overtaking under Yellow Drapeaux ↗ 2 Logan Sargeant 2023-10-29 02:10
2 Logan Sargeant 2023-10-29 02:10 CET
Infringement - Williams - Equipment in Pit Lane ↗ 2023-10-29 02:10
2023-10-29 02:10 CET
Decision - Car 2 - Failing to set a lap time within 107% ↗ 2 Logan Sargeant 2023-10-29 02:11
2 Logan Sargeant 2023-10-29 02:11 CET
Final Course Classification ↗ 2023-10-29 02:16
2023-10-29 02:16 CET
Provisional Starting Grille ↗ 2023-10-29 02:27
2023-10-29 02:27 CET
Final Qualifications Classification ↗ 2023-10-29 02:35
2023-10-29 02:35 CET
Qualifications SC2-SC1 Times ↗ 2023-10-29 02:51
2023-10-29 02:51 CET
Qualifications Deleted Tour Times ↗ 2023-10-29 02:51
2023-10-29 02:51 CET
Decision - Car 1 - Alleged impeding at Pit Exit ↗ 1 Max Verstappen 2023-10-29 02:52
1 Max Verstappen 2023-10-29 02:52 CET
Decision - Car 63 - Alleged impeding at Pit Exit ↗ 63 George Russell 2023-10-29 02:52
63 George Russell 2023-10-29 02:52 CET
Decision - Car 44 - Alleged failure to slow under yellow flags ↗ 44 Lewis Hamilton 2023-10-29 02:53
44 Lewis Hamilton 2023-10-29 02:53 CET
Infringement - Car 24 - Pit Lane Speeding ↗ 24 Guanyu Zhou 2023-10-29 02:53
24 Guanyu Zhou 2023-10-29 02:53 CET
Decision - Car 14 - Alleged impeding at Pit Exit ↗ 14 Fernando Alonso 2023-10-29 02:53
14 Fernando Alonso 2023-10-29 02:53 CET
Parc Fermé issues ↗ 2023-10-29 17:05
2023-10-29 17:05 CET
Infringement - Car 18 - Changes made during Parc Ferme ↗ 18 Lance Stroll 2023-10-29 17:12
18 Lance Stroll 2023-10-29 17:12 CET
Parts and parameters been replaced and or changed during Parc Fermé ↗ 2023-10-29 19:00
2023-10-29 19:00 CET
Final Starting Grille ↗ 2023-10-29 19:01
2023-10-29 19:01 CET
Post-Course Procedure ↗ 2023-10-29 19:30
2023-10-29 19:30 CET
Pre-Course Procedure ↗ 2023-10-29 19:30
2023-10-29 19:30 CET
Infringement - Car 14 - Pit Lane Speeding ↗ 14 Fernando Alonso 2023-10-29 21:02
14 Fernando Alonso 2023-10-29 21:02 CET
Summons - Car 16 - Alleged driving a car in an unsafe condition ↗ 16 Charles Leclerc 2023-10-29 21:54
16 Charles Leclerc 2023-10-29 21:54 CET
Summons - Car 18 - T15 incident with Car 77 ↗ 18 Lance Stroll 2023-10-29 23:25
18 Lance Stroll 2023-10-29 23:25 CET
Summons - Car 77 - T15 incident with Car 18 ↗ 77 Valtteri Bottas 2023-10-29 23:28
77 Valtteri Bottas 2023-10-29 23:28 CET
Provisional Course Classification ↗ 2023-10-29 23:30
2023-10-29 23:30 CET
Decision - Car 22 - Turn 1 incident with Car 81 ↗ 22 Yuki Tsunoda 2023-10-30 00:05
22 Yuki Tsunoda 2023-10-30 00:05 CET
Decision - Car 81 - Turn 2 incident with Car 22 ↗ 81 Oscar Piastri 2023-10-30 00:05
81 Oscar Piastri 2023-10-30 00:05 CET
Decision - Car 22 - Turn 2 incident with Car 81 ↗ 22 Yuki Tsunoda 2023-10-30 00:05
22 Yuki Tsunoda 2023-10-30 00:05 CET
Decision - Car 81 - Turn 1 incident with Car 22 ↗ 81 Oscar Piastri 2023-10-30 00:06
81 Oscar Piastri 2023-10-30 00:06 CET
Course Deleted Tour Times ↗ 2023-10-30 00:32
2023-10-30 00:32 CET
Decision - Car 16 - Alleged driving a car in an unsafe condition ↗ 16 Charles Leclerc 2023-10-30 00:34
16 Charles Leclerc 2023-10-30 00:34 CET
Infringement - Car 77 - Causing a collision ↗ 77 Valtteri Bottas 2023-10-30 00:55
77 Valtteri Bottas 2023-10-30 00:55 CET
Course scrutineering ↗ 2023-10-30 01:20
2023-10-30 01:20 CET
Final Course Classification ↗ 2023-10-30 01:30
2023-10-30 01:30 CET
Championnat Points ↗ 2023-10-30 01:45
2023-10-30 01:45 CET
FIA official decisions and documents (fia.com) · PDF original PDF links
Record Basis · Calculation basis
Course order is the final classification(post-race penalties applied) · les qualifications session data 2003+ · lap times 1996+ · pit stops 2012+ (pit-lane transit, not stationary time) · Abandon = Finished(Finished·+N Tours) non-Finished statuses
Sources des données: Jolpica-F1 (Ergast compatible API) · weather·Direction de course OpenF1 (2023+) · Last fetched: 2026-09-05 22:20